STARLINK-34844

Last updated on Mon Dec 15 2025 00:02:09 GMT+0000 (Coordinated Universal Time)

1 66486U 25263B 25347.78402390 .00062922 00000+0 10717-2 0 9990 2 66486 43.0013 119.0631 0004020 285.7981 74.2436 15.50521682 5679
UTC large
Height (km)
Speed (km/s)
/
Latitude / Longitude
Inclination (degrees)
Orbital Period (minutes)
Azimuth
Elevation
Range (km)
Doppler Factor

Next 0 passes for location: London (51.5072 / 0.1276)

Sorry there are no passes over London.